Wind_Speed
106 102 96 88 82 82 72 69 69 71 77 74 70 67 68 67 67 62 63 63 66 63 63 60 55 57 59 56 52 46 53 58 57 61 67 72 65 67 64 68 69 69 66 63
110 106 103 95 90 86 79 76 72 72 70 68 70 67 64 60 63 61 62 63 64 69 73 73 75 76 72 68 71 69 66 68 69 69 63 65 67 71 72 72 70 70 73 70
111 107 107 103 100 90 89 87 80 78 75 73 68 64 65 67 70 73 66 68 72 76 72 74 77 78 72 72 73 77 71 77 77 73 68 73 68 70 76 74 73 74 74 75
120 117 108 108 105 97 91 85 85 84 79 74 71 67 70 71 73 75 75 76 73 71 72 77 77 77 79 80 82 77 83 83 75 72 77 72 72 80 75 76 77 79 79 78
121 125 117 116 110 104 97 94 88 85 81 82 80 76 68 70 69 71 73 74 74 74 81 84 89 89 89 86 87 81 84 81 80 81 84 83 84 81 91 85 81 79 81 81
121 122 122 118 113 110 106 102 98 94 85 81 81 79 81 73 74 80 85 86 83 84 78 77 80 83 84 81 86 91 90 86 84 86 95 94 91 93 92 89 85 83 83 81
119 124 124 121 117 114 107 105 103 102 97 89 85 82 76 78 79 80 78 73 73 74 78 80 80 84 86 92 87 79 83 90 94 100 99 100 101 98 93 89 86 86 85 87
109 119 123 120 120 116 110 108 106 105 101 94 91 90 92 87 87 87 88 85 80 79 84 84 86 85 89 86 90 96 99 101 99 97 102 96 97 96 91 86 88 90 93 95
114 112 120 121 119 117 112 109 109 106 105 103 95 90 84 89 96 94 95 98 99 97 100 101 104 101 97 99 98 103 99 101 99 103 98 95 87 89 91 95 96 97 100 101
114 112 110 120 120 118 112 107 110 106 107 105 99 85 87 87 83 80 89 95 97 97 87 86 89 90 92 89 95 104 104 98 93 90 92 101 96 99 102 102 105 105 109 112
118 112 108 113 121 117 113 110 104 107 106 106 105 101 97 102 102 101 98 94 90 92 102 98 92 93 101 100 97 96 98 95 96 107 110 110 116 114 117 115 115 119 119 117
124 121 119 119 123 120 120 117 117 116 111 107 108 109 106 98 95 94 93 94 94 94 98 99 100 101 100 98 99 104 107 114 116 121 119 116 117 120 121 122 124 122 122 120
114 115 116 117 115 113 113 118 119 116 113 112 110 112 116 114 100 97 101 106 107 108 104 104 105 103 104 107 114 118 121 125 124 123 123 123 124 125 127 127 127 129 129 130
116 113 113 111 108 108 113 114 116 117 116 116 116 119 121 119 118 118 114 109 109 111 116 118 119 120 124 126 128 130 131 132 132 133 134 133 133 133 133 132 132 132 132 132
119 116 115 112 110 110 112 112 110 110 110 111 115 117 120 118 120 122 124 125 127 130 131 133 134 137 137 138 138 138 136 136 136 136 136 135 132 130 130 131 130 130 129 129
123 123 118 114 111 110 110 108 107 107 106 108 112 111 120 114 113 117 120 124 127 129 133 135 135 134 135 135 134 134 134 134 132 129 126 126 127 129 131 133 135 135 136 139
122 125 123 120 116 113 113 111 110 109 109 107 108 111 113 109 111 114 118 119 120 120 123 125 125 126 127 126 125 126 128 128 129 129 132 136 138 138 140 145 145 147 148 148
109 120 126 125 122 118 115 113 113 113 113 113 112 115 116 116 119 119 118 119 121 123 124 124 127 127 126 128 127 129 131 133 134 137 143 146 149 152 155 154 152 153 150 147
98 105 112 118 121 122 121 117 116 116 117 118 117 118 120 122 122 122 120 122 125 125 125 128 126 126 127 129 132 133 135 136 140 145 151 154 158 165 159 156 150 149 147 146
88 93 98 105 109 112 118 119 119 121 118 118 121 121 119 119 121 120 119 116 123 125 123 120 123 134 136 132 136 140 142 149 147 147 155 165 167 158 151 148 149 149 142 135
72 80 88 93 96 98 102 108 112 115 114 118 118 119 122 122 124 119 121 123 121 121 126 127 135 140 142 143 142 148 150 154 160 163 160 154 149 151 147 138 140 135 128 122
55 60 66 73 82 90 96 99 103 105 108 115 121 126 129 126 124 125 126 124 128 126 132 135 137 141 147 149 154 156 155 147 139 140 141 139 134 131 130 125 123 122 119 115
39 43 47 52 58 63 71 80 87 93 96 99 100 103 115 125 124 127 129 132 134 138 137 139 142 144 136 128 128 130 131 126 118 119 118 115 117 119 120 121 122 121 120 117
19 26 32 37 41 45 49 55 59 63 68 74 80 86 94 100 104 105 107 111 116 119 121 120 117 116 112 103 104 105 103 99 100 103 107 110 112 117 123 125 126 124 121 118
6 3 10 16 22 27 32 37 41 45 49 53 58 62 67 71 76 79 81 82 82 82 84 86 85 84 81 82 83 84 90 95 98 105 109 114 114 117 123 127 129 128 124 123
25 21 16 11 5 3 7 13 18 23 28 32 36 39 41 45 47 48 47 49 50 53 56 60 65 70 73 75 83 88 93 98 103 107 110 117 124 127 131 130 125 131 127 123
Wind_Direction
224 224 227 226 225 222 223 225 227 229 230 232 231 239 240 249 252 251 252 255 255 260 260 260 253 259 263 268 269 265 268 275 283 285 285 289 290 291 293 295 296 293 286 288
222 225 226 226 226 227 224 228 226 231 229 235 236 238 236 240 244 245 249 252 255 255 259 260 263 259 264 268 269 273 273 275 281 288 284 286 284 286 289 293 294 292 288 286
222 225 226 229 228 229 225 231 232 231 233 237 236 237 239 241 246 250 252 252 254 252 256 260 262 261 263 265 269 269 272 275 280 284 277 284 283 285 286 291 290 289 288 286
224 224 226 230 231 230 233 231 236 234 234 236 240 242 238 240 244 251 250 247 244 251 257 259 260 260 264 266 270 271 272 276 275 276 281 280 276 287 285 290 288 287 286 285
229 229 226 230 232 232 231 235 230 235 236 238 241 240 239 239 241 246 248 249 250 251 263 265 262 261 262 266 267 267 273 272 278 279 282 286 285 280 288 289 287 287 286 286
232 231 230 228 232 234 233 233 236 235 233 236 239 241 239 242 247 252 253 254 255 257 256 258 259 260 264 263 272 274 275 275 277 276 285 286 287 288 288 288 288 288 288 286
231 232 232 231 230 232 235 236 235 235 236 233 234 235 237 243 247 249 251 251 251 251 254 256 260 261 269 272 274 270 270 273 274 281 283 285 286 286 285 289 287 286 286 285
223 230 232 233 234 234 235 235 237 238 237 242 242 244 237 243 247 248 248 250 254 255 258 260 261 261 267 266 271 271 273 279 285 285 287 289 288 287 288 283 282 281 284 284
225 226 232 233 234 235 236 237 238 238 239 240 244 243 245 246 248 247 250 253 255 260 263 264 265 267 266 266 267 274 276 278 280 284 286 287 281 280 280 276 277 280 284 286
220 226 229 233 234 236 237 238 238 239 240 239 243 238 240 240 241 246 253 257 259 260 254 256 258 263 265 263 266 272 279 281 276 277 277 284 277 278 280 279 277 279 281 284
218 222 226 231 235 235 236 238 239 241 241 240 242 243 241 243 244 249 255 250 250 254 253 260 263 263 266 269 268 268 272 270 271 275 278 277 280 278 276 281 281 284 285 286
223 226 228 230 235 237 236 236 240 240 240 242 243 245 246 249 247 249 248 247 251 252 256 258 257 260 263 262 264 267 270 275 276 279 282 283 283 283 283 282 283 284 285 285
225 227 229 231 235 237 239 242 239 239 241 241 241 245 246 247 244 245 247 247 249 254 252 254 257 260 262 261 266 271 272 275 276 277 278 279 281 282 283 283 284 284 285 285
226 227 229 231 232 234 233 237 245 246 245 244 243 243 246 249 251 252 249 250 250 252 254 256 259 262 266 269 271 273 274 276 278 280 281 282 284 284 285 285 285 285 285 286
226 228 231 232 232 234 236 238 242 245 247 248 250 249 248 249 251 254 255 256 256 258 260 263 266 268 269 270 273 275 278 280 282 283 284 285 286 286 288 288 288 288 288 289
226 228 230 232 233 235 238 240 241 242 246 249 250 252 254 256 258 257 258 259 260 262 264 266 269 272 274 276 279 281 281 283 284 284 285 288 290 290 290 291 290 289 289 290
226 229 231 232 234 235 237 239 242 244 246 246 250 252 258 258 259 261 264 266 267 269 270 272 274 275 277 279 280 281 281 283 285 287 290 291 291 291 290 290 290 290 289 288
229 230 231 233 235 237 238 240 242 243 245 248 249 251 255 257 258 260 261 263 265 268 270 272 274 276 277 279 282 286 287 288 289 289 290 291 291 292 291 291 290 290 289 289
232 233 235 237 237 239 239 241 243 244 245 246 249 252 254 256 257 260 262 264 266 270 273 275 276 278 281 281 284 285 285 285 285 285 288 288 289 292 291 289 289 289 290 289
236 236 238 239 240 243 243 244 246 247 248 249 252 254 254 257 259 264 266 267 270 273 273 272 271 276 280 281 283 284 285 287 288 287 285 288 291 292 291 290 291 291 291 291
238 239 240 240 240 243 245 247 248 251 252 254 254 256 258 258 261 263 260 267 268 267 268 269 274 278 279 281 282 284 285 285 286 288 288 288 287 288 290 291 291 291 292 293
242 242 243 244 244 244 246 248 249 250 251 252 254 256 257 259 261 257 262 265 265 266 266 270 277 276 279 281 281 282 284 285 285 285 287 288 289 289 291 291 291 292 293 294
246 249 252 250 249 248 250 251 252 253 254 254 257 259 258 256 258 261 263 265 266 267 268 274 276 278 281 280 280 280 282 283 282 285 287 289 289 290 291 291 293 295 297 299
238 239 240 243 246 249 249 251 252 254 255 256 257 258 259 260 261 263 265 267 269 270 272 274 276 276 277 279 280 280 283 285 285 287 289 291 292 292 293 294 296 298 299 300
103 202 244 246 247 247 249 251 253 255 257 258 259 259 260 261 263 265 267 268 269 270 272 273 274 277 281 283 284 285 286 287 286 286 289 290 292 294 294 295 297 298 300 300
59 66 73 85 103 177 237 245 252 255 257 260 261 263 266 267 268 269 272 273 276 279 280 281 281 282 284 286 285 286 286 287 291 292 292 293 293 294 295 296 297 299 300 299
Height
10661 10676 10689 10701 10708 10715 10724 10727 10736 10742 10750 10754 10763 10771 10779 10785 10786 10791 10793 10795 10797 10797 10799 10801 10804 10807 10809 10811 10811 10812 10812 10813 10814 10816 10813 10812 10811 10809 10808 10808 10805 10804 10801 10798
10648 10663 10675 10684 10693 10702 10713 10719 10725 10732 10739 10745 10753 10761 10765 10771 10772 10775 10779 10782 10784 10785 10784 10787 10792 10796 10798 10797 10797 10797 10799 10801 10800 10802 10804 10802 10800 10798 10796 10795 10793 10788 10785 10784
10635 10649 10660 10669 10678 10689 10700 10708 10715 10721 10729 10734 10741 10747 10754 10758 10760 10762 10767 10771 10772 10772 10772 10777 10780 10781 10781 10781 10785 10786 10786 10788 10788 10787 10787 10787 10788 10786 10783 10782 10780 10774 10771 10770
10617 10630 10644 10653 10663 10676 10686 10698 10702 10709 10718 10723 10730 10736 10740 10745 10749 10749 10753 10757 10756 10758 10762 10763 10763 10764 10765 10769 10770 10771 10770 10772 10772 10774 10773 10771 10771 10770 10768 10767 10761 10757 10754 10753
10605 10612 10629 10638 10650 10661 10673 10682 10692 10696 10704 10713 10718 10723 10730 10732 10736 10736 10736 10740 10747 10747 10745 10746 10749 10751 10753 10752 10752 10753 10754 10754 10754 10754 10754 10754 10753 10751 10750 10749 10745 10740 10736 10733
10579 10593 10609 10625 10633 10644 10657 10667 10675 10685 10692 10702 10708 10714 10717 10721 10723 10720 10723 10730 10731 10730 10730 10731 10732 10734 10737 10737 10737 10738 10737 10734 10732 10732 10734 10734 10733 10730 10728 10728 10722 10718 10716 10714
10560 10574 10590 10603 10617 10628 10642 10649 10658 10667 10680 10695 10697 10702 10704 10707 10708 10710 10710 10713 10715 10717 10716 10716 10716 10716 10718 10718 10719 10719 10718 10718 10716 10713 10712 10712 10710 10709 10708 10708 10705 10701 10695 10691
10540 10554 10573 10587 10600 10615 10622 10630 10643 10653 10667 10676 10680 10687 10692 10689 10693 10694 10696 10697 10700 10700 10698 10698 10698 10699 10698 10697 10699 10698 10698 10695 10693 10691 10691 10689 10689 10687 10685 10684 10682 10678 10676 10673
10526 10539 10552 10568 10581 10592 10607 10621 10624 10637 10650 10661 10666 10673 10672 10672 10675 10680 10680 10682 10683 10685 10685 10685 10687 10687 10686 10681 10679 10678 10677 10676 10678 10676 10673 10671 10668 10667 10665 10664 10661 10657 10653 10649
10513 10522 10534 10551 10563 10576 10592 10599 10608 10624 10634 10644 10652 10656 10659 10663 10662 10663 10663 10668 10668 10667 10668 10669 10669 10668 10666 10662 10659 10659 10659 10656 10656 10656 10655 10652 10649 10647 10643 10640 10637 10634 10631 10625
10502 10513 10524 10532 10546 10563 10573 10585 10593 10603 10616 10627 10633 10638 10643 10643 10644 10646 10649 10654 10654 10652 10650 10650 10652 10648 10645 10640 10640 10639 10640 10639 10639 10637 10633 10633 10629 10626 10622 10617 10611 10607 10604 10597
10489 10500 10510 10519 10527 10540 10553 10564 10575 10585 10600 10607 10612 10617 10621 10619 10625 10632 10638 10638 10634 10630 10633 10631 10626 10624 10625 10624 10622 10621 10620 10618 10614 10614 10609 10605 10602 10598 10594 10588 10582 10576 10572 10568
10470 10482 10491 10497 10512 10526 10537 10544 10556 10568 10578 10588 10593 10599 10595 10603 10614 10617 10618 10617 10617 10614 10608 10604 10605 10604 10607 10606 10603 10599 10596 10595 10592 10588 10586 10581 10575 10571 10567 10560 10551 10545 10540 10535
10452 10465 10474 10488 10503 10508 10517 10526 10534 10545 10558 10566 10572 10574 10576 10588 10596 10597 10598 10599 10596 10592 10587 10584 10585 10586 10586 10583 10581 10578 10575 10571 10567 10561 10555 10552 10547 10540 10533 10526 10519 10511 10505 10501
10439 10449 10456 10470 10482 10490 10499 10511 10521 10530 10534 10542 10543 10552 10557 10570 10571 10574 10574 10571 10570 10567 10566 10567 10567 10565 10561 10558 10555 10553 10551 10545 10538 10531 10524 10517 10512 10506 10500 10493 10487 10479 10470 10463
10419 10426 10440 10453 10467 10476 10484 10494 10505 10511 10518 10520 10521 10528 10529 10546 10549 10547 10549 10548 10546 10547 10547 10546 10544 10541 10538 10534 10532 10526 10518 10511 10503 10497 10493 10487 10480 10473 10464 10458 10452 10443 10435 10426
10404 10410 10423 10436 10448 10458 10468 10478 10487 10492 10496 10502 10508 10509 10519 10522 10524 10526 10526 10527 10527 10527 10525 10521 10519 10513 10510 10509 10507 10501 10492 10484 10476 10468 10459 10453 10447 10441 10430 10420 10411 10402 10397 10390
10388 10396 10405 10418 10430 10444 10454 10462 10470 10478 10484 10488 10496 10497 10496 10497 10501 10501 10504 10509 10508 10502 10502 10501 10494 10486 10487 10486 10478 10471 10463 10456 10450 10440 10429 10419 10408 10400 10387 10379 10370 10358 10352 10348
10376 10387 10395 10407 10419 10428 10437 10445 10453 10460 10464 10467 10474 10476 10478 10478 10478 10482 10486 10487 10482 10480 10482 10478 10464 10461 10460 10458 10452 10445 10436 10429 10420 10410 10397 10383 10371 10360 10348 10337 10329 10315 10309 10302
10364 10374 10384 10394 10405 10416 10421 10427 10434 10436 10448 10449 10450 10454 10457 10456 10458 10464 10464 10465 10461 10461 10456 10448 10441 10434 10434 10429 10422 10415 10407 10399 10389 10376 10363 10347 10332 10321 10313 10297 10286 10277 10265 10260
10348 10358 10366 10374 10384 10394 10399 10402 10409 10418 10431 10425 10430 10433 10435 10436 10442 10445 10445 10444 10443 10437 10432 10428 10421 10413 10405 10400 10392 10385 10377 10365 10355 10341 10331 10311 10294 10285 10272 10262 10250 10240 10230 10224
10334 10343 10350 10359 10368 10374 10377 10384 10390 10397 10407 10410 10409 10408 10412 10417 10421 10420 10422 10420 10417 10413 10411 10407 10397 10387 10380 10370 10364 10352 10344 10330 10315 10303 10293 10280 10267 10251 10239 10228 10219 10206 10197 10191
10322 10329 10335 10342 10348 10355 10361 10366 10372 10379 10384 10387 10387 10386 10392 10396 10395 10392 10389 10394 10395 10393 10389 10380 10373 10365 10350 10336 10330 10326 10313 10299 10286 10279 10263 10254 10241 10225 10209 10197 10188 10178 10164 10154
10315 10320 10325 10329 10335 10340 10345 10347 10351 10356 10360 10363 10366 10369 10369 10371 10372 10370 10367 10366 10363 10361 10361 10353 10345 10334 10322 10312 10298 10292 10286 10276 10265 10253 10241 10227 10214 10202 10185 10171 10155 10144 10130 10120
10314 10316 10318 10321 10324 10328 10331 10334 10336 10339 10342 10344 10347 10348 10349 10350 10349 10347 10346 10344 10340 10337 10331 10325 10318 10309 10301 10290 10279 10272 10263 10252 10240 10227 10214 10200 10183 10168 10158 10142 10125 10110 10096 10083
10317 10319 10319 10320 10322 10324 10325 10327 10329 10330 10333 10334 10334 10334 10335 10335 10334 10332 10329 10326 10322 10317 10312 10305 10298 10292 10283 10274 10263 10252 10239 10228 10215 10200 10184 10169 10152 10136 10121 10108 10099 10075 10061 10048